Beaufort MCAS, SC

4:59 AM EDT on September 20, 2017 (GMT -0400)
Beaufort Marine Corps Air Station

Weather History for KNBC - January, 2014

Change the Weather History Date:

Sunday, January 5, 2014

  Actual Average Record
Temperature  
Mean Temperature 51 °F -  
Max Temperature 59 °F 59 °F 80 °F (1939)
Min Temperature 43 °F 41 °F 19 °F (1981)
Degree Days  
Heating Degree Days 14    
Growing Degree Days 1 (Base 50)    
Moisture  
Dew Point 44 °F    
Average Humidity 81    
Maximum Humidity 93    
Minimum Humidity 69    
Precipitation  
Precipitation 0.00 in - - ()
Sea Level Pressure  
Sea Level Pressure 30.07 in    
Wind  
Wind Speed 5 mph (North)    
Max Wind Speed 9 mph    
Max Gust Speed -    
Visibility 9 miles    
Events      
Averages and records for this station are not official NWS values.
T = Trace of Precipitation, MM = Missing Value Source: NWS Daily Summary

Daily Weather History Graph

Daily Weather History Graph

Search for Another Location

Airport or City:

Trip Planner

Search our weather history database for the weather conditions in past years. The results will help you decide how hot, cold, wet, or windy it might be!

Date:

Astronomy

Jan. 05, 2014 Rise Set
Actual Time 7:25 AM EST 5:31 PM EST
Civil Twilight 6:58 AM EST 5:58 PM EST
Nautical Twilight 6:27 AM EST 6:29 PM EST
Astronomical Twilight 5:57 AM EST 6:58 PM EST
Moon 10:23 AM EST (1/5) 10:38 PM EST (1/5)
Length of Visible Light 11h 00m
Length of Day
10h 06m
Waxing Crescent, 24% of the Moon is Illuminated
Jan 5
Waxing Crescent
Jan 7
First Quarter
Jan 15
Full
Jan 24
Last Quarter
Jan 30
New

Hourly Weather History & Observations

Time (EST) Temp. Windchill Dew Point Humidity Pressure Visibility Wind Dir Wind Speed Gust Speed Precip Events Conditions
12:25 AM 44.1 °F 40.1 °F 37.0 °F 76% 30.18 in 10.0 mi NNE 6.9 mph - N/A   Overcast
12:56 AM 44.1 °F 39.5 °F 37.0 °F 76% 30.18 in 10.0 mi NNE 8.1 mph - N/A   Overcast
1:23 AM 44.1 °F 39.5 °F 37.0 °F 76% 30.18 in 10.0 mi NNE 8.1 mph - N/A   Overcast
1:56 AM 43.0 °F 38.8 °F 37.0 °F 80% 30.17 in 10.0 mi NNE 6.9 mph - N/A   Mostly Cloudy
2:56 AM 43.0 °F 38.8 °F 37.0 °F 80% 30.16 in 10.0 mi North 6.9 mph - N/A   Clear
3:19 AM 43.0 °F 37.7 °F 37.0 °F 80% 30.16 in 10.0 mi North 9.2 mph - N/A   Partly Cloudy
3:56 AM 43.0 °F 38.2 °F 37.0 °F 80% 30.15 in 10.0 mi NNE 8.1 mph - N/A   Partly Cloudy
4:37 AM 43.0 °F 39.5 °F 37.0 °F 80% 30.14 in 10.0 mi NNE 5.8 mph - N/A   Mostly Cloudy
4:45 AM 43.0 °F 39.5 °F 37.0 °F 80% 30.14 in 10.0 mi NNE 5.8 mph - N/A   Overcast
4:56 AM 43.0 °F 38.8 °F 37.0 °F 80% 30.13 in 10.0 mi NNE 6.9 mph - N/A   Overcast
5:52 AM 44.1 °F 40.1 °F 37.9 °F 79% 30.12 in 10.0 mi NE 6.9 mph - N/A   Overcast
6:28 AM 44.1 °F 40.8 °F 39.0 °F 82% 30.11 in 10.0 mi NNE 5.8 mph - N/A   Mostly Cloudy
6:35 AM 44.1 °F 40.8 °F 39.0 °F 82% 30.11 in 10.0 mi NNE 5.8 mph - N/A   Mostly Cloudy
6:56 AM 45.0 °F 42.6 °F 39.9 °F 82% 30.11 in 10.0 mi NNE 4.6 mph - N/A   Overcast
7:56 AM 46.0 °F 43.9 °F 39.9 °F 79% 30.11 in 10.0 mi North 4.6 mph - N/A   Overcast
8:56 AM 46.9 °F - 41.0 °F 80% 30.13 in 10.0 mi North 5.8 mph - N/A   Overcast
9:08 AM 48.0 °F - 42.1 °F 80% 30.12 in 10.0 mi Calm Calm - N/A   Overcast
9:49 AM 48.9 °F - 42.1 °F 77% 30.12 in 10.0 mi Calm Calm - N/A   Overcast
9:56 AM 48.9 °F - 42.1 °F 77% 30.12 in 10.0 mi Calm Calm - N/A   Overcast
10:56 AM 51.1 °F - 44.1 °F 77% 30.11 in 10.0 mi Calm Calm - N/A   Overcast
11:56 AM 55.0 °F - 46.0 °F 72% 30.07 in 10.0 mi NNW 4.6 mph - N/A   Overcast
12:56 PM 59.0 °F - 48.9 °F 69% 30.03 in 10.0 mi NNW 6.9 mph - N/A   Overcast
1:32 PM 57.0 °F - 48.9 °F 74% 30.02 in 10.0 mi NNW 6.9 mph - N/A   Overcast
1:56 PM 57.9 °F - 50.0 °F 75% 30.02 in 10.0 mi North 5.8 mph - N/A   Overcast
2:11 PM 59.0 °F - 50.0 °F 72% 30.01 in 7.0 mi NNW 5.8 mph - N/A   Mostly Cloudy
3:00 PM 59.0 °F - 51.1 °F 75% 30.01 in 10.0 mi NNE 3.5 mph - N/A   Overcast
3:12 PM 59.0 °F - 51.1 °F 75% 30.01 in 7.0 mi North 5.8 mph - N/A   Mostly Cloudy
3:56 PM 57.0 °F - 51.1 °F 81% 30.01 in 7.0 mi NNW 3.5 mph - N/A   Mostly Cloudy
4:56 PM 57.9 °F - 52.0 °F 81% 30.01 in 7.0 mi NNW 3.5 mph - N/A   Mostly Cloudy
5:56 PM 53.1 °F - 50.0 °F 89% 29.99 in 9.0 mi Calm Calm - N/A   Clear
6:56 PM 51.1 °F - 48.0 °F 89% 29.97 in 6.0 mi Calm Calm - N/A   Clear
7:56 PM 51.1 °F - 48.0 °F 89% 29.99 in 7.0 mi Calm Calm - N/A   Scattered Clouds
8:04 PM 51.1 °F - 48.9 °F 92% 29.98 in 7.0 mi Calm Calm - N/A   Mostly Cloudy
8:53 PM 51.8 °F - 48.2 °F 88% 29.96 in 7.0 mi Calm Calm - N/A   Scattered Clouds
8:56 PM 51.1 °F - 48.9 °F 92% 29.96 in 7.0 mi Calm Calm - N/A   Scattered Clouds
9:56 PM 51.1 °F - 48.9 °F 92% 29.94 in 5.0 mi South 3.5 mph - N/A   Clear
10:56 PM 53.1 °F - 51.1 °F 93% 29.91 in 5.0 mi South 5.8 mph - N/A   Clear
11:56 PM 54.0 °F - 51.1 °F 90% 29.88 in 10.0 mi South 6.9 mph - N/A   Clear